星链-5938 (STARLINK-5938 )

导读

STARLINK-5938是美国星链计划中的一颗卫星,于2023年3月17日发射入轨。星链计划是SpaceX打造的低轨卫星互联网项目,该卫星承担着为全球范围提供高速互联网接入服务的任务,补充完善星链星座的通信覆盖网络,推动全球卫星互联网服务的覆盖广度与服务稳定性提升。

Basic Information
目录编号:
55960
目录名称:
STARLINK-5938
国际标识:
2023-037AY
轨道中心:
EARTH
卫星名称:
星链-5938
卫星全名:
星链-5938 (STARLINK-5938 )
卫星状态:
在轨 (已飞行1268 天)
发射日期:
2023-03-17 UTC
国别 :
美国 (US)
星等 :
--
Orbit Information
数据来源 国际轨道数据
星历时间: 2026-09-04T03:39:17+0800
1天前
查看轨道信息
半长轴: 6950.194km
偏心率: 0.0002634
轨道倾角: 70.001°
近地点辐角 270.591°
升交点赤经 175.375°
平近点角 89.495°
近地点: 570.226km
远地点: 573.888km
周期: 96.107分钟
每日圈数: 14.983298
Detailed Information
固有亮度:
5
最大亮度:
2.5
卫星平台:
Starlink v1.5
覆盖范围:
全球
运营商:
太空探索技术公司
运营商所在国:
美国
制造商(研发单位):
太空探索技术公司
制造商所在国:
美国
使用方式:
暂无
Satellite Introduction
星链(Starlink)计划是由太空探索技术公司(SpaceX)提出的一个巨型低轨卫星互联网星座项目,计划在2019年至2024年间在太空搭建由约1.2万颗卫星组成的“星链”网络,其中1584颗将部署在地球上空550千米处的近地轨道,并从2020年开始工作。该卫星仍在工作。
2D Orbit Map
3D Orbit Map
Orbit Altitude Analysis Chart
Orbit Inclination Analysis Chart
Orbit Comprehensive Analysis Chart
View Comprehensive Chart
Conjunction Data List
Event ID Objects TCA Miss Dist (km) Collision Risk Probability Collision Risk Index (CRI) Action
CDM_260905-133005-596006-456322
AE3VA (64563)
2026-09-05T
13:30:51+0000
1.933 km
极远距离
3.151452E-6 低风险 0.45
CDM_260907-074005-596006-829121
STRIX-6 (68291)
2026-09-07T
07:40:36+0000
2.279 km
极远距离
1.930907E-6 低风险 0.41
CDM_260906-183505-596006-174222
OBJECT H (61742)
2026-09-06T
18:35:28+0000
2.816 km
极远距离
1.19508E-6 低风险 0.37